Погода в Горском

Украина / Луганская область     48°44′28″N   38°29′41″E
темп.,
°C
ветер,
м/с
пор.,
м/с
влажн.,
%
обл.,
%
осадки,
мм/ч
давл.,
гПа
погр.,
м
25 января, пн
пн2523:000юв61384100 0.0 1017373
02:000юв5118495 0.0 1016334
05:00+1юв5984100 0.1 1016311
08:00+1ююв5118686 0.1 1015311
11:00+5ююв5108149 0.0 1016313
14:00+4ююв6108264 0.0 1014374
17:00+2юв5118931 0.0 1015269
20:00+2юв6138140 0.0 1014315
26 января, вт
вт2623:00+2юв6157198 0.0 1013385
02:00+3юв7176699 0.0 1011470
05:00+2ююв81880100 0.5 1010460
08:00+3ю6139387 0.9 1012421
11:00+5ююз6117691 0.0 1014655
14:00+4ю498296 0.0 1013349
17:00+3ююв61489100 0.0 1014313
20:00+5ююв61690100 0.0 1013405
27 января, ср
ср2723:00+4ююв71789100 0.0 1013483
02:00+4ююв61576100 0.0 1012375
05:00+3ююв41284100 0.0 1011320
08:00+4юв61482100 0.0 1011382
11:00+6юв71372100 0.0 1010422
14:00+6юв61274100 0.0 1008414
17:00+4вюв71378100 0.0 1007361
20:00+3юв71681100 0.0 1008548
28 января, чт
чт2823:00+3юв61386100 0.0 1007466
02:00+2юв61189100 0.0 1006325
05:00+2вюв5989100 0.0 1004281
08:00+3юв61287100 0.1 1004413
11:00+6ююв71580100 0.1 1004654
14:00+8ю81475100 0.1 1002977
17:00+6ю61390100 0.0 1003511
20:00+5ю51092100 0.1 1004476
29 января, пт
пт2923:00+3ююз4888100 0.1 1005456
02:000юз4979100 0.1 1005448
05:00−1юз598099 0.0 1006568
08:000зюз6875100 0.0 1007798
11:00+1зюз6865100 0.0 10071014
14:00+2юз575868 0.0 10071121
17:00−1ю33690 0.0 100659
20:00−1ююв377921 0.0 1005302